This demonstration page uses our WeatherBlox Daily Observations layout. Learn more.

Left ArrowRight Arrow

Hourly Observations for March 22, 2019

Temp ( °F °C ) Dew Point ( °F °C ) Humidity (%) Winds ( mph kmh ) Pressure ( in mb ) Visibility ( mi km ) Precip ( " mm )
12:52 am 00:52 Clear 39 3.9 34 1.1 82 82 NW 5 7 30.17 1022 10 16 0.00 0.00
1:52 am 01:52 Clear 37 2.8 34 1.1 89 89 NW 6 9 30.18 1022 10 16 0.00 0.00
2:52 am 02:52 Clear 37 2.8 33 0.6 86 86 NW 5 7 30.19 1022 10 16 0.00 0.00
3:52 am 03:52 Clear 36 2.2 31 -0.6 82 82 Calm 30.19 1023 10 16 0.00 0.00
4:52 am 04:52 Clear 34 1.1 31 -0.6 89 89 NNW 6 9 30.19 1022 10 16 0.00 0.00
5:52 am 05:52 Clear 34 1.1 30 -1.1 85 85 N 7 11 30.20 1023 10 16 0.00 0.00
6:52 am 06:52 Mostly Clear 37 2.8 33 0.6 86 86 N 9 15 30.20 1023 10 16 0.00 0.00
7:52 am 07:52 Mostly Sunny 37 2.8 33 0.6 86 86 N 6 9 30.22 1023 9 14 0.00 0.00
8:52 am 08:52 Mostly Sunny 40 4.4 35 1.7 83 83 N 7 11 30.23 1024 10 16 0.00 0.00
9:52 am 09:52 Partly Cloudy 42 5.6 36 2.2 79 79 N 10 17 30.24 1024 10 16 0.00 0.00
10:52 am 10:52 Partly Cloudy 45 7.2 35 1.7 68 68 NNW 8 13 30.24 1024 10 16 0.00 0.00
11:52 am 11:52 Partly Cloudy 46 7.8 33 0.6 61 61 N 10 17 30.24 1024 10 16 0.00 0.00
12:52 pm 12:52 Partly Cloudy 49 9.4 34 1.1 56 56 N 9 15 30.23 1024 10 16 0.00 0.00
1:52 pm 13:52 Partly Cloudy 54 12.2 33 0.6 45 45 N 7 11 30.22 1023 10 16 0.00 0.00
2:52 pm 14:52 Partly Cloudy 56 13.3 31 -0.6 39 39 N 6 9 30.20 1023 10 16 0.00 0.00
3:52 pm 15:52 Mostly Cloudy 58 14.4 30 -1.1 35 35 N 7 11 30.17 1022 10 16 0.00 0.00
4:52 pm 16:52 Mostly Cloudy 60 15.6 31 -0.6 33 33 NNW 7 11 30.15 1021 10 16 0.00 0.00
5:52 pm 17:52 Mostly Cloudy 60 15.6 31 -0.6 33 33 NNW 6 9 30.14 1021 10 16 0.00 0.00
6:52 pm 18:52 Mostly Cloudy 55 12.8 35 1.7 47 47 N 6 9 30.14 1021 10 16 0.00 0.00
7:52 pm 19:52 Cloudy 51 10.6 34 1.1 52 52 ENE 6 9 30.13 1020 10 16 0.00 0.00
8:52 pm 20:52 Mostly Cloudy 49 9.4 28 -2.2 44 44 E 6 9 30.14 1021 10 16 0.00 0.00
9:52 pm 21:52 Mostly Cloudy 50 10 28 -2.2 43 43 E 12 19 30.15 1021 10 16 0.00 0.00
10:52 pm 22:52 Mostly Cloudy 48 8.9 29 -1.7 48 48 E 14 22 30.16 1021 10 16 0.00 0.00
11:52 pm 23:52 Mostly Cloudy 47 8.3 29 -1.7 50 50 E 13 20 30.16 1022 10 16 0.00 0.00

Powered by AerisWeather